PGT2DK LTFJ-EKCH

Flight info

Callsign PGT2DK
Flight time N/A
Altitude 38000
Route TUDBU DCT AMTOV DCT APROB DCT BIVBU DCT EMPOS DCT BADOR DCT KELEL DCT BABEN DCT KOLOB DCT ROE M743 TIDVU
Aircraft A21N/M-SDE2E3FGHIRWXY/LB1

Departure

Time 2026-05-06 13:26
Airport Istanbul Sabiha Gökçen International Airport (LTFJ)

Arrival

Time N/A
Airport Copenhagen Kastrup Airport (EKCH)
Time Latitude Longitude Altitude Speed Heading
2026-05-06 12:52 40.90531 29.31461 323 ft 0 kts 335°
2026-05-06 13:05 40.90526 29.31465 324 ft 2 kts 333°
2026-05-06 13:05 40.90511 29.31475 322 ft 2 kts 330°
2026-05-06 13:06 40.90497 29.31486 324 ft 2 kts 324°
2026-05-06 13:06 40.90485 29.31501 323 ft 2 kts 306°
2026-05-06 13:06 40.90480 29.31521 324 ft 2 kts 261°
2026-05-06 13:06 40.90483 29.31535 324 ft 1 kts 245°
2026-05-06 13:07 40.90484 29.31536 324 ft 0 kts 244°
2026-05-06 13:09 40.90477 29.31518 322 ft 5 kts 244°
2026-05-06 13:09 40.90449 29.31448 322 ft 10 kts 232°
2026-05-06 13:09 40.90388 29.31454 322 ft 10 kts 156°
2026-05-06 13:10 40.90326 29.31494 323 ft 10 kts 154°
2026-05-06 13:10 40.90264 29.31461 323 ft 13 kts 240°
2026-05-06 13:10 40.90217 29.31334 321 ft 18 kts 244°
2026-05-06 13:10 40.90158 29.31173 322 ft 19 kts 244°
2026-05-06 13:11 40.90097 29.31017 323 ft 15 kts 229°
2026-05-06 13:11 40.90004 29.31008 323 ft 15 kts 155°
2026-05-06 13:11 40.89910 29.31069 322 ft 16 kts 154°
2026-05-06 13:11 40.89809 29.31134 323 ft 16 kts 154°
2026-05-06 13:12 40.89793 29.31250 321 ft 16 kts 65°
2026-05-06 13:12 40.89852 29.31412 323 ft 23 kts 64°
2026-05-06 13:12 40.89931 29.31623 321 ft 24 kts 64°
2026-05-06 13:12 40.89996 29.31802 323 ft 24 kts 64°
2026-05-06 13:13 40.90023 29.31949 320 ft 13 kts 136°
2026-05-06 13:13 40.89938 29.32010 321 ft 15 kts 154°
2026-05-06 13:13 40.89824 29.32082 315 ft 20 kts 154°
2026-05-06 13:13 40.89689 29.32168 309 ft 23 kts 154°
2026-05-06 13:14 40.89564 29.32262 311 ft 14 kts 117°
2026-05-06 13:14 40.89518 29.32368 310 ft 14 kts 142°
2026-05-06 13:14 40.89512 29.32475 310 ft 13 kts 63°
2026-05-06 13:14 40.89554 29.32588 310 ft 14 kts 64°
2026-05-06 13:15 40.89597 29.32705 310 ft 15 kts 64°
2026-05-06 13:15 40.89645 29.32834 311 ft 15 kts 64°
2026-05-06 13:15 40.89691 29.32960 309 ft 17 kts 64°
2026-05-06 13:15 40.89745 29.33103 309 ft 18 kts 63°
2026-05-06 13:16 40.89803 29.33260 306 ft 20 kts 64°
2026-05-06 13:16 40.89863 29.33424 309 ft 20 kts 64°
2026-05-06 13:16 40.89921 29.33581 312 ft 18 kts 64°
2026-05-06 13:16 40.89972 29.33718 315 ft 15 kts 64°
2026-05-06 13:17 40.90015 29.33834 319 ft 13 kts 64°
2026-05-06 13:17 40.90009 29.33919 319 ft 8 kts 141°
2026-05-06 13:17 40.89957 29.33955 320 ft 9 kts 154°
2026-05-06 13:17 40.89953 29.33957 320 ft 0 kts 154°
2026-05-06 13:24 40.89952 29.33957 320 ft 1 kts 154°
2026-05-06 13:25 40.89925 29.33975 320 ft 8 kts 154°
2026-05-06 13:25 40.89876 29.33998 323 ft 6 kts 182°
2026-05-06 13:25 40.89846 29.33958 322 ft 7 kts 244°
2026-05-06 13:25 40.89801 29.33837 318 ft 37 kts 244°
2026-05-06 13:26 40.89587 29.33252 312 ft 104 kts 244°
2026-05-06 13:26 40.89171 29.32110 304 ft 165 kts 244°
2026-05-06 13:26 40.88654 29.30691 770 ft 168 kts 246°
2026-05-06 13:26 40.88191 29.29194 1527 ft 169 kts 248°
2026-05-06 13:27 40.87405 29.28085 2020 ft 183 kts 202°
2026-05-06 13:27 40.86112 29.27527 2487 ft 206 kts 205°
2026-05-06 13:27 40.84799 29.26578 2975 ft 225 kts 212°
2026-05-06 13:27 40.83393 29.25433 3510 ft 247 kts 214°
2026-05-06 13:28 40.81923 29.24199 4383 ft 253 kts 214°
2026-05-06 13:28 40.80425 29.22929 5368 ft 257 kts 215°
2026-05-06 13:28 40.78905 29.21634 6260 ft 263 kts 215°
2026-05-06 13:28 40.77363 29.20317 6779 ft 267 kts 216°
2026-05-06 13:29 40.75982 29.18704 6989 ft 265 kts 239°
2026-05-06 13:29 40.75079 29.16537 7004 ft 273 kts 247°
2026-05-06 13:29 40.74285 29.14274 6996 ft 274 kts 247°
2026-05-06 13:29 40.73483 29.11965 6993 ft 274 kts 247°
2026-05-06 13:30 40.72677 29.09688 6994 ft 274 kts 246°
2026-05-06 13:30 40.71857 29.07400 6999 ft 274 kts 246°
2026-05-06 13:30 40.71037 29.05135 6996 ft 274 kts 246°
2026-05-06 13:30 40.70212 29.02869 6994 ft 274 kts 246°
2026-05-06 13:31 40.69380 29.00590 7347 ft 278 kts 246°
2026-05-06 13:31 40.68537 28.98287 8255 ft 279 kts 247°
2026-05-06 13:31 40.67690 28.95976 9254 ft 281 kts 247°
2026-05-06 13:31 40.66986 28.93565 10058 ft 284 kts 262°
2026-05-06 13:32 40.66816 28.90889 10528 ft 300 kts 274°
2026-05-06 13:32 40.66892 28.88028 10880 ft 322 kts 276°
2026-05-06 13:32 40.67014 28.84997 11297 ft 339 kts 276°
2026-05-06 13:32 40.67132 28.81844 11982 ft 347 kts 276°
2026-05-06 13:33 40.67241 28.78641 12780 ft 352 kts 275°
2026-05-06 13:33 40.67345 28.75398 13575 ft 356 kts 275°
2026-05-06 13:33 40.67445 28.72121 14333 ft 360 kts 275°
2026-05-06 13:33 40.67545 28.68806 15061 ft 364 kts 275°
2026-05-06 13:34 40.67666 28.65421 15758 ft 368 kts 278°
2026-05-06 13:34 40.68158 28.62114 16450 ft 368 kts 292°
2026-05-06 13:34 40.69318 28.59118 17144 ft 367 kts 308°
2026-05-06 13:34 40.71094 28.56720 17823 ft 367 kts 324°
2026-05-06 13:35 40.73307 28.55027 18485 ft 370 kts 335°
2026-05-06 13:35 40.75690 28.53600 19102 ft 373 kts 336°
2026-05-06 13:35 40.78092 28.52142 19706 ft 376 kts 335°
2026-05-06 13:35 40.80467 28.50672 20298 ft 378 kts 335°
2026-05-06 13:36 40.82859 28.49190 20882 ft 381 kts 335°
2026-05-06 13:36 40.85263 28.47703 21468 ft 384 kts 335°
2026-05-06 13:36 40.87695 28.46199 22045 ft 387 kts 335°
2026-05-06 13:36 40.90137 28.44691 22610 ft 389 kts 335°
2026-05-06 13:37 40.92602 28.43167 23192 ft 392 kts 335°
2026-05-06 13:37 40.95118 28.41611 23742 ft 395 kts 335°
2026-05-06 13:37 40.97615 28.40065 24201 ft 398 kts 335°
2026-05-06 13:37 41.00135 28.38504 24679 ft 400 kts 335°
2026-05-06 13:38 41.02664 28.36937 25156 ft 402 kts 335°
2026-05-06 13:38 41.05196 28.35366 25657 ft 402 kts 335°
2026-05-06 13:38 41.07733 28.33790 26113 ft 404 kts 335°
2026-05-06 13:38 41.10285 28.32205 26522 ft 406 kts 335°
2026-05-06 13:39 41.12850 28.30610 26927 ft 408 kts 334°
2026-05-06 13:39 41.15422 28.29009 27337 ft 409 kts 334°
2026-05-06 13:39 41.18039 28.27379 27723 ft 411 kts 334°
2026-05-06 13:39 41.20637 28.25758 28109 ft 413 kts 334°
2026-05-06 13:40 41.23242 28.24132 28495 ft 415 kts 334°
2026-05-06 13:40 41.25861 28.22497 28929 ft 415 kts 334°
2026-05-06 13:40 41.28472 28.20864 29489 ft 412 kts 334°
2026-05-06 13:40 41.30191 28.19789 29852 ft 410 kts 334°
2026-05-06 13:41 41.32771 28.18173 30362 ft 408 kts 334°
2026-05-06 13:41 41.35338 28.16564 30744 ft 407 kts 334°
2026-05-06 13:41 41.37898 28.14958 31113 ft 407 kts 334°
2026-05-06 13:41 41.40454 28.13354 31482 ft 406 kts 334°
2026-05-06 13:42 41.43016 28.11743 31806 ft 406 kts 334°
2026-05-06 13:42 41.45571 28.10137 32145 ft 406 kts 335°
2026-05-06 13:42 41.48121 28.08532 32496 ft 404 kts 335°
2026-05-06 13:42 41.50664 28.06930 32863 ft 403 kts 335°
2026-05-06 13:43 41.53200 28.05331 33202 ft 403 kts 335°
2026-05-06 13:43 41.55722 28.03739 33541 ft 402 kts 335°
2026-05-06 13:43 41.58247 28.02144 33868 ft 401 kts 335°
2026-05-06 13:43 41.60768 28.00550 34169 ft 401 kts 335°
2026-05-06 13:44 41.63292 27.98953 34404 ft 401 kts 335°
2026-05-06 13:44 41.65816 27.97354 34638 ft 401 kts 334°
2026-05-06 13:44 41.68343 27.95752 34849 ft 402 kts 334°
2026-05-06 13:44 41.70864 27.94153 35063 ft 402 kts 334°
2026-05-06 13:45 41.73398 27.92544 35258 ft 402 kts 334°
2026-05-06 13:45 41.78463 27.89323 35646 ft 403 kts 334°
2026-05-06 13:45 41.81002 27.87707 35842 ft 404 kts 334°
2026-05-06 13:46 41.83541 27.86089 36035 ft 404 kts 334°
2026-05-06 13:46 41.86090 27.84463 36203 ft 404 kts 334°
2026-05-06 13:46 41.88633 27.82840 36372 ft 406 kts 334°
2026-05-06 13:46 41.91192 27.81205 36495 ft 407 kts 334°
2026-05-06 13:47 41.93741 27.79570 36664 ft 407 kts 333°
2026-05-06 13:47 41.96205 27.77695 36849 ft 407 kts 326°
2026-05-06 13:47 41.98376 27.75423 37003 ft 407 kts 319°
2026-05-06 13:47 42.00530 27.72791 37167 ft 408 kts 317°
2026-05-06 13:48 42.02577 27.70141 37326 ft 408 kts 316°
2026-05-06 13:48 42.04595 27.67458 37501 ft 408 kts 316°
2026-05-06 13:48 42.06613 27.64753 37644 ft 408 kts 316°
2026-05-06 13:48 42.08624 27.62060 37804 ft 408 kts 316°
2026-05-06 13:49 42.10646 27.59364 37950 ft 408 kts 316°
2026-05-06 13:49 42.12673 27.56673 38049 ft 409 kts 316°
2026-05-06 13:49 42.16735 27.51300 38063 ft 409 kts 316°
2026-05-06 13:50 42.20802 27.45922 38059 ft 409 kts 316°
2026-05-06 13:50 42.24866 27.40538 38063 ft 409 kts 316°
2026-05-06 13:51 42.28928 27.35144 38062 ft 409 kts 316°
2026-05-06 13:51 42.32981 27.29750 38063 ft 409 kts 316°
2026-05-06 13:52 42.37043 27.24335 38066 ft 409 kts 316°
2026-05-06 13:52 42.41091 27.18928 38060 ft 409 kts 316°
2026-05-06 13:53 42.45137 27.13514 38057 ft 409 kts 316°
2026-05-06 13:53 42.49185 27.08085 38056 ft 410 kts 316°
2026-05-06 13:54 42.53244 27.02632 38051 ft 410 kts 316°
2026-05-06 13:54 42.57310 26.97158 38050 ft 410 kts 316°
2026-05-06 13:55 42.61349 26.91710 38051 ft 409 kts 316°
2026-05-06 13:55 42.65377 26.86267 38042 ft 408 kts 316°
2026-05-06 13:56 42.69402 26.80818 38042 ft 408 kts 316°
2026-05-06 13:56 42.73422 26.75364 38032 ft 408 kts 316°
2026-05-06 13:57 42.77414 26.69938 38030 ft 406 kts 316°
2026-05-06 13:57 42.81417 26.64486 38035 ft 405 kts 316°
2026-05-06 13:58 42.85400 26.59051 38028 ft 405 kts 316°
2026-05-06 13:58 42.89376 26.53616 38027 ft 405 kts 316°
2026-05-06 13:59 42.93354 26.48168 38013 ft 404 kts 316°
2026-05-06 13:59 42.97315 26.42731 38016 ft 404 kts 316°
2026-05-06 14:00 43.01278 26.37283 38009 ft 403 kts 316°
2026-05-06 14:00 43.05232 26.31834 38004 ft 405 kts 315°
2026-05-06 14:01 43.09250 26.26288 37992 ft 406 kts 315°
2026-05-06 14:01 43.13212 26.20807 37989 ft 404 kts 315°
2026-05-06 14:02 43.17199 26.15279 37992 ft 404 kts 315°
2026-05-06 14:02 43.21125 26.09772 37987 ft 404 kts 315°
2026-05-06 14:03 43.25049 26.04230 37988 ft 404 kts 315°
2026-05-06 14:03 43.28946 25.98715 37987 ft 402 kts 315°
2026-05-06 14:04 43.32841 25.93198 37986 ft 402 kts 315°
2026-05-06 14:04 43.36735 25.87674 37987 ft 403 kts 315°
2026-05-06 14:05 43.40635 25.82130 37988 ft 403 kts 315°
2026-05-06 14:05 43.44552 25.76550 37986 ft 403 kts 315°
2026-05-06 14:06 43.48456 25.70979 37981 ft 403 kts 315°
2026-05-06 14:06 43.52351 25.65409 37978 ft 403 kts 315°
2026-05-06 14:07 43.56244 25.59830 37979 ft 403 kts 315°
2026-05-06 14:07 43.60132 25.54248 37974 ft 403 kts 315°
2026-05-06 14:08 43.63357 25.49610 37978 ft 402 kts 315°
2026-05-06 14:08 43.67232 25.44026 37979 ft 403 kts 315°
2026-05-06 14:09 43.71106 25.38432 37980 ft 403 kts 315°
2026-05-06 14:09 43.74978 25.32830 37980 ft 403 kts 315°
2026-05-06 14:10 43.78869 25.27190 37982 ft 402 kts 314°
2026-05-06 14:10 43.82734 25.21575 37985 ft 402 kts 314°
2026-05-06 14:11 43.86576 25.15983 37985 ft 402 kts 314°
2026-05-06 14:11 43.90436 25.10354 37988 ft 402 kts 314°
2026-05-06 14:12 43.94279 25.04740 37984 ft 402 kts 314°
2026-05-06 14:12 43.98576 24.99672 37985 ft 401 kts 328°
2026-05-06 14:13 44.03463 24.95913 37985 ft 402 kts 332°
2026-05-06 14:13 44.08459 24.92424 37985 ft 402 kts 333°
2026-05-06 14:14 44.13555 24.88916 37979 ft 402 kts 333°
2026-05-06 14:14 44.18552 24.85446 37987 ft 403 kts 332°
2026-05-06 14:15 44.23571 24.81928 37982 ft 403 kts 332°
2026-05-06 14:15 44.28585 24.78400 37982 ft 403 kts 332°
2026-05-06 14:16 44.33595 24.74868 37982 ft 403 kts 332°
2026-05-06 14:16 44.38622 24.71320 37982 ft 403 kts 332°
2026-05-06 14:17 44.43638 24.67773 37984 ft 405 kts 332°
2026-05-06 14:17 44.48660 24.64215 37979 ft 405 kts 332°
2026-05-06 14:18 44.53700 24.60637 37979 ft 405 kts 332°
2026-05-06 14:18 44.58716 24.57069 37979 ft 405 kts 332°
2026-05-06 14:19 44.63743 24.53486 37979 ft 405 kts 332°
2026-05-06 14:19 44.68808 24.49870 37991 ft 406 kts 331°
2026-05-06 14:20 44.73852 24.46261 37977 ft 407 kts 331°
2026-05-06 14:20 44.78903 24.42639 37979 ft 407 kts 331°
2026-05-06 14:21 44.83980 24.38993 37974 ft 407 kts 331°
2026-05-06 14:21 44.89077 24.35324 37974 ft 407 kts 331°
2026-05-06 14:22 44.94172 24.31705 37984 ft 408 kts 332°
2026-05-06 14:22 44.99396 24.28142 37977 ft 409 kts 332°
2026-05-06 14:23 45.04550 24.24652 37976 ft 409 kts 332°
2026-05-06 14:23 45.09654 24.21178 37977 ft 409 kts 332°
2026-05-06 14:24 45.13990 24.18212 37982 ft 409 kts 332°
2026-05-06 14:24 45.19091 24.14712 37981 ft 409 kts 332°